sat.trackr.live / text

‹ back to catalog

MALLIGYONG-1

NORAD 58400 · 2023-179A

PAYLOAD ACTIVE UNKNOWN

§ Identity

Operator
Country
NKOR
Launch date
2023-11-21
Launch site
YUN
Launch vehicle
Mass (kg)
RCS (m²)

External: N2YO · Heavens-Above · Gunter

§ Orbital elements

Epoch: 2026-05-25T04:00:33.806016Z

Period
94.58 min
Inclination
97.3052°
Eccentricity
0.0010217
Mean motion
15.22486859 rev/d
Perigee alt
491.3 km
Apogee alt
505.4 km
Semi-major
6,876.5 km
B*
1.2122e-4
RAAN
27.3630°
Arg perigee
106.2094°
Mean anomaly
254.0268°
Rev number
13,925

§ Raw data

MALLIGYONG-11 58400U 23179A   26145.16705794  .00002742  00000+0  12122-3 0  99912 58400  97.3052  27.3630 0010217 106.2094 254.0268 15.22486859139256

JSON: /api/v1/satellites/58400 · /tle

For live sub-satellite position, see the globe view (requires WebGL).

§ Visibility from observer

Set your observer location to see the next 7 days of passes ≥ 10°. The values pass through the URL so the page stays shareable.

No JS? Fill the form by hand. The geolocation button needs JavaScript.